[[{"header":{"parameterUnit":"m.s-1","parameterCategory":1,"la1":30.2991,"la2":30.254,"lo1":-89.0895,"lo2":-89.0444,"dy":0.0017,"dx":0.0017,"nx":28,"ny":28,"refTime":"2024-02-05T03:00:00:Z","depth":0,"parameterNumber":2,"parameterNumberName":"U-component_of_WINDS"},"data":[0,0,0,0,0,0,0,0,0,0,0,0,0,0,0,0,0,0,0,0,0,0,0,0,0,0,0,0,0,0,0,0,0,0,0,0,0,0,0,0,0,0,0,0,0,0,0,0,0,0,0,0,0,0,0,0,0,0,1.3319,1.3319,0,1.3311,1.3311,1.3311,1.3291,1.329,1.329,1.3289,1.3279,1.3279,1.3279,0,0,0,0,0,0,0,0,0,0,0,0,0,1.3317,1.3317,1.3319,1.3319,1.3319,1.3311,1.3311,1.3311,1.3291,1.329,1.329,1.3289,1.3279,1.3279,1.3279,0,0,0,0,0,0,0,0,0,0,0,0,0,1.3314,1.3317,1.3319,1.3308,1.3307,1.3311,1.3311,1.3311,1.3291,1.329,1.3289,1.3289,1.3279,1.3279,1.3279,1.3293,0,0,1.328,1.328,0,0,0,0,0,0,0,0,1.3314,1.3314,1.331,1.3309,1.3308,1.3301,1.3306,1.3305,1.3291,1.3297,1.3289,1.3289,1.3287,1.3286,1.3286,1.3292,1.3292,1.328,1.328,1.328,1.328,0,0,0,0,0,0,0,1.3315,1.3314,1.3316,1.331,1.3309,1.3303,1.3302,1.3306,1.3295,1.3296,1.3295,1.3294,1.3286,1.3286,1.3286,1.3292,1.328,1.328,1.328,1.328,1.331,1.3311,0,0,0,0,0,0,1.3317,1.3315,1.3316,1.3316,1.331,1.3304,1.3303,1.3304,1.3295,1.3293,1.3295,1.3293,1.3286,1.3285,1.3285,1.3301,1.328,1.328,1.328,1.3309,1.331,1.3311,0,0,0,0,0,0,1.3317,1.3317,1.3317,1.3315,1.3314,1.3305,1.3306,1.3304,1.3304,1.3294,1.3292,1.3297,1.3285,1.3285,1.3292,1.33,1.328,1.328,1.3308,1.331,1.3311,1.3333,0,0,0,0,0,0,1.3317,1.3317,1.3322,1.3315,1.3315,1.3323,1.3307,1.3304,1.3304,1.3302,1.3295,1.3294,1.3285,1.3291,1.3292,1.33,1.3281,1.3308,1.3309,1.331,1.3331,1.3334,1.3337,0,0,0,0,0,1.3317,1.3328,1.3323,1.3323,1.3321,1.3324,1.3323,1.3314,1.3305,1.331,1.3304,1.3294,1.33,1.3292,1.3292,1.3301,1.3307,1.3309,1.331,1.333,1.3334,1.3337,0,0,0,0,0,0,1.3335,1.3327,1.3321,1.333,1.3328,1.332,1.3326,1.3318,1.3318,1.3316,1.3303,1.3302,1.331,1.3306,1.3298,1.3314,1.3302,1.3303,1.3316,1.332,1.3323,1.3324,1.3281,0,0,0,0,0,1.3341,1.3344,1.3337,1.3346,1.3345,1.3336,1.3337,1.333,1.3327,1.3325,1.332,1.3317,1.3318,1.3319,1.3319,1.3331,1.3329,1.3337,1.334,1.3342,1.3344,1.335,1.3354,1.3316,1.3316,1.3316,0,0,1.3352,1.3347,1.335,1.335,1.3347,1.3351,1.3335,1.3339,1.3342,1.3326,1.3332,1.3328,1.3324,1.3333,1.3337,1.333,1.3354,1.3344,1.3347,1.3346,1.3352,1.3356,1.3359,1.3317,1.3317,1.3317,0,0,1.3373,1.3371,1.3378,1.3376,1.3373,1.3367,1.3369,1.3363,1.336,1.3367,1.3355,1.3358,1.336,1.3357,1.3357,1.3379,1.337,1.338,1.3395,1.3401,1.3404,1.3407,1.3415,1.3418,1.3381,1.3382,1.3382,0,1.3387,1.3392,1.3383,1.3389,1.3389,1.3376,1.3383,1.3382,1.3379,1.3379,1.3372,1.3375,1.3371,1.338,1.3386,1.3386,1.3388,1.338,1.3405,1.3407,1.341,1.3417,1.342,1.3383,1.3383,1.3382,1.3382,0,1.3409,1.3413,1.342,1.3418,1.3419,1.3426,1.3418,1.342,1.3413,1.3408,1.3415,1.3411,1.341,1.3412,1.3405,1.342,1.3416,1.3407,1.3394,1.3415,1.3421,1.3424,1.3385,1.3384,1.3384,1.3383,0,0,1.3441,1.3436,1.3438,1.3438,1.3434,1.3437,1.3443,1.3444,1.3446,1.3444,1.3449,1.3452,1.3445,1.3444,1.3437,1.3442,1.3461,1.3433,1.3432,1.3438,1.3477,1.3484,1.3487,1.3455,1.3455,1.3456,1.3478,0,1.3461,1.3472,1.3465,1.3477,1.348,1.3469,1.3474,1.3473,1.3469,1.3471,1.3466,1.3469,1.3458,1.3458,1.3463,1.3458,1.3469,1.3456,1.3459,1.3459,1.346,1.3491,1.3497,1.3518,1.348,1.3481,1.3481,0,1.3486,1.3487,1.3499,1.3496,1.3497,1.3502,1.3503,1.3506,1.3504,1.35,1.35,1.3492,1.3498,1.3486,1.3494,1.3486,1.3487,1.3485,1.3485,1.3484,1.3471,1.3491,1.3524,1.3527,1.3485,1.3485,1.3485,0,1.3508,1.3512,1.352,1.352,1.3516,1.352,1.3519,1.3517,1.3518,1.3518,1.3519,1.352,1.352,1.3521,1.3514,1.3506,1.3523,1.351,1.352,1.352,1.3523,1.3523,1.3557,1.3525,1.3525,1.3525,1.3525,0,1.353,1.3539,1.353,1.3535,1.3544,1.3536,1.3545,1.3542,1.3541,1.3545,1.3535,1.3539,1.3529,1.3532,1.3526,1.3534,1.3534,1.3531,1.353,1.3532,1.3532,1.3532,1.353,1.3525,1.3525,1.3525,1.3525,0,1.3556,1.355,1.3559,1.3555,1.3555,1.3561,1.3558,1.3562,1.3558,1.3564,1.3565,1.3558,1.3561,1.3554,1.3556,1.3552,1.3563,1.356,1.3564,1.3563,1.3573,1.3572,1.3608,1.3612,1.3578,1.3578,1.3578,0,1.357,1.3576,1.3574,1.3577,1.3576,1.358,1.3582,1.3574,1.3576,1.3576,1.358,1.3583,1.3585,1.3591,1.3586,1.3587,1.3583,1.3596,1.3583,1.3586,1.3583,1.3583,1.3583,1.3598,1.3598,1.3599,1.3599,0,1.3597,1.3594,1.3597,1.36,1.3603,1.3604,1.3605,1.3607,1.36,1.3602,1.3606,1.3608,1.3611,1.3613,1.3614,1.3612,1.3604,1.3603,1.3605,1.3607,1.361,1.3608,1.3571,1.3602,1.3602,1.3601,1.3601,1.3601,1.3617,1.3622,1.3622,1.3626,1.3626,1.3627,1.3631,1.3629,1.3632,1.3634,1.363,1.3635,1.3634,1.3634,1.3633,1.3637,1.3631,1.3635,1.3635,1.3636,1.3638,1.361,1.3637,1.3637,1.3637,1.3637,1.3637,0,1.3643,1.3642,1.3646,1.3648,1.3652,1.3645,1.3646,1.3649,1.3654,1.3654,1.3656,1.3661,1.3664,1.366,1.3662,1.3666,1.3663,1.3667,1.3666,1.3666,1.3643,1.364,1.367,1.367,1.367,1.367,1.367,1.367,1.3656,1.3665,1.3663,1.3672,1.3671,1.3677,1.3678,1.3679,1.3679,1.3685,1.3688,1.3686,1.3685,1.3687,1.369,1.3688,1.3689,1.3695,1.3693,1.3671,1.3668,1.3664,1.3662,1.3696,1.3696,1.3715,1.3716,1.3716]},{"header":{"parameterUnit":"m.s-1","parameterCategory":1,"la1":30.2991,"la2":30.254,"lo1":-89.0895,"lo2":-89.0444,"dy":0.0017,"dx":0.0017,"nx":28,"ny":28,"refTime":"2024-02-05T03:00:00:Z","depth":0,"parameterNumber":3,"parameterNumberName":"V-component_of_WINDS"},"data":[0,0,0,0,0,0,0,0,0,0,0,0,0,0,0,0,0,0,0,0,0,0,0,0,0,0,0,0,0,0,0,0,0,0,0,0,0,0,0,0,0,0,0,0,0,0,0,0,0,0,0,0,0,0,0,0,0,0,-3.1148,-3.1149,0,-3.1166,-3.1166,-3.1166,-3.1128,-3.1127,-3.1126,-3.1125,-3.1141,-3.1143,-3.1144,0,0,0,0,0,0,0,0,0,0,0,0,0,-3.1084,-3.1085,-3.1148,-3.1149,-3.1149,-3.1166,-3.1166,-3.1166,-3.1129,-3.1127,-3.1126,-3.1124,-3.1141,-3.1142,-3.1144,0,0,0,0,0,0,0,0,0,0,0,0,0,-3.1107,-3.1085,-3.1148,-3.1132,-3.1131,-3.1166,-3.1166,-3.1166,-3.1129,-3.1127,-3.1125,-3.1124,-3.114,-3.1142,-3.1144,-3.1195,0,0,-3.1152,-3.1153,0,0,0,0,0,0,0,0,-3.1106,-3.111,-3.1134,-3.1133,-3.1132,-3.1143,-3.1149,-3.1176,-3.1129,-3.113,-3.1125,-3.1123,-3.1143,-3.1145,-3.1152,-3.1196,-3.1196,-3.1152,-3.1153,-3.1154,-3.1155,0,0,0,0,0,0,0,-3.1104,-3.1109,-3.1155,-3.1135,-3.1133,-3.1124,-3.1126,-3.1154,-3.1146,-3.1129,-3.1127,-3.1129,-3.1142,-3.115,-3.1152,-3.1197,-3.1152,-3.1154,-3.1155,-3.1156,-3.1285,-3.1286,0,0,0,0,0,0,-3.1105,-3.1108,-3.1155,-3.1156,-3.1114,-3.1127,-3.1128,-3.1141,-3.1146,-3.1145,-3.1131,-3.1128,-3.1147,-3.115,-3.1153,-3.1213,-3.1154,-3.1156,-3.1158,-3.1283,-3.1285,-3.1287,0,0,0,0,0,0,-3.1104,-3.1109,-3.1154,-3.1131,-3.1136,-3.113,-3.1145,-3.1143,-3.115,-3.1147,-3.1145,-3.114,-3.1146,-3.1149,-3.1185,-3.1213,-3.1157,-3.116,-3.128,-3.1283,-3.1286,-3.1334,0,0,0,0,0,0,-3.1102,-3.1109,-3.1128,-3.1132,-3.1137,-3.1186,-3.1146,-3.1144,-3.1155,-3.1151,-3.1155,-3.1154,-3.1144,-3.1182,-3.1188,-3.1216,-3.1161,-3.1278,-3.1282,-3.1285,-3.133,-3.1339,-3.1346,0,0,0,0,0,-3.11,-3.114,-3.1129,-3.1135,-3.1161,-3.1188,-3.1191,-3.1179,-3.1157,-3.1176,-3.1175,-3.1154,-3.1209,-3.1186,-3.1192,-3.1221,-3.1276,-3.128,-3.1285,-3.1327,-3.1337,-3.1346,0,0,0,0,0,0,-3.1139,-3.114,-3.1128,-3.1171,-3.118,-3.1182,-3.1205,-3.119,-3.1205,-3.12,-3.1184,-3.1186,-3.1225,-3.1226,-3.12,-3.1271,-3.1239,-3.1245,-3.1269,-3.1278,-3.1286,-3.1285,-3.1163,0,0,0,0,0,-3.1153,-3.1175,-3.1175,-3.1213,-3.1218,-3.1211,-3.1222,-3.1213,-3.1221,-3.1224,-3.1225,-3.1233,-3.1253,-3.1266,-3.1283,-3.133,-3.1332,-3.1354,-3.1361,-3.1368,-3.1373,-3.14,-3.141,-3.1302,-3.1302,-3.1302,0,0,-3.1181,-3.1185,-3.12,-3.1221,-3.1227,-3.125,-3.1214,-3.124,-3.1258,-3.1228,-3.1262,-3.1263,-3.1272,-3.1314,-3.1333,-3.1317,-3.1403,-3.1374,-3.1379,-3.1381,-3.1406,-3.1416,-3.1425,-3.1305,-3.1305,-3.1304,0,0,-3.1246,-3.125,-3.1283,-3.129,-3.1299,-3.1295,-3.1303,-3.1308,-3.1308,-3.1342,-3.1321,-3.1341,-3.1374,-3.1382,-3.139,-3.146,-3.1442,-3.1466,-3.1507,-3.1533,-3.1541,-3.1549,-3.1575,-3.1584,-3.1471,-3.1471,-3.1471,0,-3.128,-3.1314,-3.1302,-3.133,-3.134,-3.1316,-3.135,-3.1357,-3.1371,-3.1379,-3.1361,-3.1404,-3.1407,-3.1452,-3.1469,-3.1476,-3.1486,-3.1465,-3.1541,-3.1549,-3.1555,-3.158,-3.159,-3.1474,-3.1474,-3.1473,-3.1473,0,-3.1356,-3.1381,-3.1406,-3.1422,-3.1436,-3.1466,-3.1459,-3.1474,-3.1464,-3.1461,-3.1498,-3.1502,-3.1521,-3.153,-3.152,-3.1574,-3.1564,-3.1544,-3.1511,-3.1569,-3.1592,-3.1601,-3.1478,-3.1477,-3.1476,-3.1476,0,0,-3.1444,-3.1455,-3.1464,-3.1472,-3.1482,-3.15,-3.1531,-3.155,-3.1564,-3.1575,-3.16,-3.163,-3.1612,-3.1622,-3.1612,-3.1635,-3.1692,-3.1612,-3.1612,-3.1628,-3.1753,-3.1769,-3.178,-3.168,-3.1682,-3.1683,-3.1753,0,-3.1508,-3.1561,-3.1551,-3.1602,-3.1626,-3.1604,-3.163,-3.164,-3.1639,-3.1658,-3.1657,-3.1679,-3.1653,-3.1659,-3.1681,-3.168,-3.1717,-3.1675,-3.1704,-3.1705,-3.1703,-3.1791,-3.1807,-3.1873,-3.1762,-3.1763,-3.1764,0,-3.159,-3.1606,-3.166,-3.1668,-3.1677,-3.1701,-3.1719,-3.1738,-3.1748,-3.1746,-3.1758,-3.1745,-3.1775,-3.1743,-3.1785,-3.1757,-3.1769,-3.177,-3.1773,-3.1775,-3.1738,-3.1797,-3.1893,-3.1903,-3.1778,-3.1777,-3.1776,0,-3.165,-3.1685,-3.1722,-3.1729,-3.1739,-3.1757,-3.1761,-3.177,-3.1783,-3.1799,-3.1807,-3.1826,-3.1836,-3.1851,-3.1844,-3.182,-3.1888,-3.1854,-3.1887,-3.1888,-3.1902,-3.1902,-3.2003,-3.1909,-3.1909,-3.1909,-3.1909,0,-3.1723,-3.1756,-3.1749,-3.1772,-3.181,-3.1799,-3.1837,-3.1839,-3.1848,-3.1871,-3.1853,-3.1875,-3.1864,-3.1885,-3.1879,-3.1916,-3.1921,-3.192,-3.1918,-3.1922,-3.1922,-3.1929,-3.1925,-3.1912,-3.1911,-3.1911,-3.191,0,-3.1795,-3.1792,-3.1831,-3.1838,-3.1841,-3.1869,-3.1875,-3.1896,-3.1895,-3.1925,-3.1931,-3.1929,-3.1953,-3.1948,-3.1974,-3.197,-3.2017,-3.2009,-3.2014,-3.2012,-3.2046,-3.2043,-3.2155,-3.217,-3.2067,-3.2068,-3.2069,0,-3.1842,-3.1868,-3.1879,-3.1894,-3.19,-3.1924,-3.1938,-3.1929,-3.1944,-3.1959,-3.1979,-3.2002,-3.202,-3.2061,-3.2061,-3.2082,-3.2075,-3.2113,-3.2078,-3.2081,-3.2076,-3.2075,-3.2078,-3.212,-3.2121,-3.2122,-3.2123,0,-3.1926,-3.1924,-3.1944,-3.1965,-3.1982,-3.1998,-3.2011,-3.2025,-3.2017,-3.2035,-3.206,-3.2075,-3.2103,-3.2126,-3.2146,-3.2151,-3.2136,-3.2134,-3.2143,-3.2147,-3.2149,-3.2149,-3.2033,-3.2131,-3.213,-3.213,-3.2129,-3.2129,-3.1988,-3.2011,-3.2022,-3.2046,-3.2056,-3.207,-3.2092,-3.2094,-3.2115,-3.2138,-3.2131,-3.2161,-3.2172,-3.2197,-3.2205,-3.2228,-3.2214,-3.2226,-3.2229,-3.2233,-3.2238,-3.2145,-3.2231,-3.2231,-3.2231,-3.2231,-3.223,0,-3.2071,-3.2078,-3.2101,-3.2122,-3.2141,-3.2126,-3.2141,-3.2159,-3.2185,-3.2197,-3.2216,-3.2247,-3.227,-3.2273,-3.2296,-3.2314,-3.2308,-3.232,-3.2319,-3.232,-3.2249,-3.2239,-3.2325,-3.2325,-3.2325,-3.2325,-3.2325,-3.2325,-3.2117,-3.2156,-3.2155,-3.2198,-3.2205,-3.2235,-3.2245,-3.2258,-3.2268,-3.2303,-3.2323,-3.2325,-3.2334,-3.2357,-3.2379,-3.2379,-3.2388,-3.2404,-3.2402,-3.2334,-3.2325,-3.2316,-3.2307,-3.2406,-3.2406,-3.2471,-3.2472,-3.2472]}]]